When you browse on this site, cookies collect data to enhance your experience and personalize the content and advertising you see.
Visit our Privacy Policy to learn more. By continuing to use the site, you agree to this use of cookies and data.
  • In Schweiz
  • Länderverzeichnis
  • Für 7 Tage
  • Wassertemperatur
  • Satellitenkarten
  • Wetterkarte
  • Widgets
  • user-avatar
    Anmelden

    Stündliche Wetter Varyash-Bash

    Heute, 16 Februar, Samstag

    Zeit Temperatur Niederschläge Wind Luftdruck Luftfeuchtigkeit
    00:00 -10°C° 0.4 mm 6 m/S 739 mmHg 92%
    01:00 -10°C° 0.4 mm 6 m/S 739 mmHg 92%
    02:00 -9°C° 0.2 mm 6 m/S 738 mmHg 92%
    03:00 -8°C° 0.2 mm 5 m/S 738 mmHg 92%
    04:00 -8°C° 0 mm 4 m/S 737 mmHg 93%
    05:00 -7°C° 0.1 mm 5 m/S 737 mmHg 93%
    06:00 -6°C° 0.1 mm 5 m/S 737 mmHg 93%
    07:00 -5°C° 0.1 mm 5 m/S 737 mmHg 94%
    08:00 -4°C° 0.2 mm 5 m/S 737 mmHg 93%
    09:00 -4°C° 0.2 mm 5 m/S 737 mmHg 93%
    10:00 -2°C° 0 mm 5 m/S 737 mmHg 93%
    11:00 -2°C° 0.1 mm 5 m/S 737 mmHg 94%
    12:00 -2°C° 0.1 mm 4 m/S 737 mmHg 96%
    13:00 -2°C° 0.1 mm 4 m/S 737 mmHg 97%
    14:00 -2°C° 0.1 mm 4 m/S 737 mmHg 96%
    15:00 -1°C° 0.1 mm 3 m/S 737 mmHg 94%
    16:00 -1°C° 0.1 mm 3 m/S 738 mmHg 93%
    17:00 -2°C° 0 mm 3 m/S 738 mmHg 94%
    18:00 -4°C° 0 mm 3 m/S 738 mmHg 94%
    19:00 -5°C° 0 mm 3 m/S 738 mmHg 95%
    20:00 -6°C° 0 mm 3 m/S 738 mmHg 95%
    21:00 -5°C° 0 mm 2 m/S 739 mmHg 96%
    22:00 -6°C° 0 mm 2 m/S 739 mmHg 96%
    23:00 -6°C° 0 mm 2 m/S 739 mmHg 96%

    Morgen, 17 Februar, Sonntag

    Zeit Temperatur Niederschläge Wind Luftdruck Luftfeuchtigkeit
    00:00 -6°C° 0 mm 2 m/S 739 mmHg 97%
    01:00 -6°C° 0 mm 2 m/S 739 mmHg 97%
    02:00 -5°C° 0.1 mm 2 m/S 739 mmHg 97%
    03:00 -4°C° 0.1 mm 2 m/S 739 mmHg 97%
    04:00 -3°C° 0.1 mm 2 m/S 739 mmHg 97%
    05:00 -4°C° 0 mm 2 m/S 739 mmHg 97%
    06:00 -3°C° 0 mm 1 m/S 739 mmHg 97%
    07:00 -4°C° 0 mm 1 m/S 739 mmHg 97%
    08:00 -3°C° 0 mm 1 m/S 738 mmHg 97%
    09:00 -4°C° 0 mm 2 m/S 738 mmHg 96%
    10:00 -3°C° 0 mm 2 m/S 738 mmHg 96%
    11:00 -4°C° 0.1 mm 3 m/S 737 mmHg 93%
    12:00 -4°C° 0.1 mm 4 m/S 737 mmHg 90%
    13:00 -4°C° 0.1 mm 5 m/S 736 mmHg 87%
    14:00 -5°C° 0 mm 5 m/S 736 mmHg 87%
    15:00 -5°C° 0 mm 5 m/S 735 mmHg 88%
    16:00 -5°C° 0 mm 5 m/S 734 mmHg 88%
    17:00 -6°C° 0 mm 5 m/S 733 mmHg 88%
    18:00 -6°C° 0 mm 5 m/S 732 mmHg 89%
    19:00 -7°C° 0 mm 5 m/S 732 mmHg 90%
    20:00 -7°C° 0.1 mm 5 m/S 731 mmHg 90%
    21:00 -8°C° 0.1 mm 6 m/S 730 mmHg 90%
    22:00 -8°C° 0.1 mm 6 m/S 729 mmHg 91%
    23:00 -8°C° 0.4 mm 6 m/S 729 mmHg 92%

    übermorgen, 18 Februar, Montag

    Zeit Temperatur Niederschläge Wind Luftdruck Luftfeuchtigkeit
    00:00 -9°C° 0.4 mm 6 m/S 728 mmHg 92%
    01:00 -9°C° 0.4 mm 6 m/S 727 mmHg 93%
    02:00 -8°C° 0.4 mm 5 m/S 727 mmHg 93%
    03:00 -8°C° 0.4 mm 5 m/S 726 mmHg 93%
    04:00 -8°C° 0.4 mm 5 m/S 726 mmHg 94%
    05:00 -8°C° 0.3 mm 4 m/S 726 mmHg 94%
    06:00 -7°C° 0.3 mm 3 m/S 726 mmHg 95%
    07:00 -7°C° 0.3 mm 3 m/S 726 mmHg 95%
    08:00 -5°C° 0.3 mm 2 m/S 726 mmHg 95%
    09:00 -5°C° 0.3 mm 2 m/S 726 mmHg 96%
    10:00 -3°C° 0.3 mm 1 m/S 726 mmHg 96%
    11:00 -4°C° 0.4 mm 2 m/S 727 mmHg 95%
    12:00 -5°C° 0.4 mm 3 m/S 727 mmHg 95%
    13:00 -5°C° 0.4 mm 3 m/S 727 mmHg 94%
    14:00 -5°C° 0.3 mm 4 m/S 728 mmHg 93%
    15:00 -6°C° 0.3 mm 5 m/S 728 mmHg 93%
    16:00 -6°C° 0.3 mm 5 m/S 729 mmHg 92%
    17:00 -6°C° 0.3 mm 6 m/S 730 mmHg 92%
    18:00 -6°C° 0.3 mm 6 m/S 730 mmHg 92%
    19:00 -6°C° 0.3 mm 6 m/S 731 mmHg 92%
    20:00 -7°C° 0.3 mm 7 m/S 732 mmHg 92%
    21:00 -7°C° 0.3 mm 7 m/S 733 mmHg 91%
    22:00 -7°C° 0.3 mm 8 m/S 734 mmHg 90%
    23:00 -9°C° 0.2 mm 9 m/S 735 mmHg 88%

    19 Februar, Dienstag

    Zeit Temperatur Niederschläge Wind Luftdruck Luftfeuchtigkeit
    00:00 -10°C° 0.2 mm 9 m/S 736 mmHg 86%
    01:00 -13°C° 0.2 mm 10 m/S 738 mmHg 84%
    02:00 -14°C° 0 mm 9 m/S 739 mmHg 84%
    03:00 -15°C° 0 mm 9 m/S 740 mmHg 85%
    04:00 -16°C° 0 mm 8 m/S 741 mmHg 85%
    05:00 -18°C° 0 mm 7 m/S 742 mmHg 84%
    06:00 -18°C° 0 mm 6 m/S 743 mmHg 84%
    07:00 -20°C° 0 mm 6 m/S 744 mmHg 83%
    08:00 -20°C° 0 mm 6 m/S 745 mmHg 82%
    09:00 -20°C° 0 mm 6 m/S 746 mmHg 81%
    10:00 -20°C° 0 mm 6 m/S 747 mmHg 81%
    11:00 -18°C° 0 mm 5 m/S 748 mmHg 80%
    12:00 -17°C° 0 mm 5 m/S 748 mmHg 79%
    13:00 -15°C° 0 mm 4 m/S 748 mmHg 78%
    14:00 -15°C° 0 mm 4 m/S 749 mmHg 81%
    15:00 -14°C° 0 mm 3 m/S 749 mmHg 84%
    16:00 -14°C° 0 mm 3 m/S 749 mmHg 87%
    17:00 -14°C° 0 mm 3 m/S 749 mmHg 86%
    18:00 -14°C° 0 mm 3 m/S 749 mmHg 85%
    19:00 -14°C° 0 mm 3 m/S 749 mmHg 84%
    20:00 -14°C° 0 mm 4 m/S 749 mmHg 84%
    21:00 -14°C° 0 mm 4 m/S 749 mmHg 84%
    22:00 -13°C° 0 mm 5 m/S 749 mmHg 84%
    23:00 -13°C° 0 mm 5 m/S 748 mmHg 86%

    20 Februar, Mittwoch

    Zeit Temperatur Niederschläge Wind Luftdruck Luftfeuchtigkeit
    00:00 -13°C° 0 mm 5 m/S 748 mmHg 89%
    01:00 -13°C° 0 mm 5 m/S 748 mmHg 91%
    02:00 -13°C° 0 mm 5 m/S 748 mmHg 91%
    03:00 -11°C° 0 mm 4 m/S 748 mmHg 92%
    04:00 -11°C° 0 mm 4 m/S 748 mmHg 92%
    05:00 -11°C° 0 mm 4 m/S 748 mmHg 92%
    06:00 -12°C° 0 mm 4 m/S 748 mmHg 93%
    07:00 -12°C° 0 mm 4 m/S 747 mmHg 93%
    08:00 -12°C° 0 mm 4 m/S 747 mmHg 93%
    09:00 -12°C° 0 mm 5 m/S 747 mmHg 93%
    10:00 -12°C° 0 mm 5 m/S 747 mmHg 92%
    11:00 -12°C° 0 mm 5 m/S 747 mmHg 91%
    12:00 -11°C° 0 mm 5 m/S 747 mmHg 90%
    13:00 -10°C° 0 mm 6 m/S 747 mmHg 89%
    14:00 -10°C° 0 mm 6 m/S 746 mmHg 87%
    15:00 -9°C° 0 mm 6 m/S 746 mmHg 86%
    16:00 -8°C° 0 mm 6 m/S 745 mmHg 84%
    17:00 -8°C° 0 mm 6 m/S 745 mmHg 84%
    18:00 -8°C° 0 mm 7 m/S 745 mmHg 84%
    19:00 -8°C° 0 mm 7 m/S 745 mmHg 84%
    20:00 -9°C° 0 mm 7 m/S 745 mmHg 83%
    21:00 -9°C° 0 mm 7 m/S 745 mmHg 83%
    22:00 -9°C° 0 mm 7 m/S 744 mmHg 82%
    23:00 -11°C° 0 mm 7 m/S 744 mmHg 84%

    21 Februar, Donnerstag

    Zeit Temperatur Niederschläge Wind Luftdruck Luftfeuchtigkeit
    00:00 -11°C° 0 mm 7 m/S 744 mmHg 85%
    01:00 -12°C° 0 mm 7 m/S 744 mmHg 86%
    02:00 -12°C° 0 mm 7 m/S 744 mmHg 87%
    03:00 -12°C° 0 mm 7 m/S 744 mmHg 89%
    04:00 -12°C° 0 mm 7 m/S 744 mmHg 90%
    05:00 -12°C° 0.1 mm 7 m/S 743 mmHg 90%
    06:00 -11°C° 0.1 mm 6 m/S 743 mmHg 90%
    07:00 -11°C° 0.1 mm 6 m/S 743 mmHg 90%
    08:00 -11°C° 0 mm 6 m/S 743 mmHg 90%
    09:00 -12°C° 0 mm 7 m/S 743 mmHg 90%
    10:00 -12°C° 0 mm 7 m/S 743 mmHg 90%
    11:00 -12°C° 0.1 mm 7 m/S 742 mmHg 90%
    12:00 -11°C° 0.1 mm 7 m/S 742 mmHg 89%
    13:00 -11°C° 0.1 mm 7 m/S 742 mmHg 89%
    14:00 -9°C° 0.1 mm 7 m/S 742 mmHg 89%
    15:00 -9°C° 0.1 mm 7 m/S 741 mmHg 88%
    16:00 -8°C° 0.1 mm 7 m/S 741 mmHg 88%
    17:00 -8°C° 0.2 mm 7 m/S 741 mmHg 88%
    18:00 -8°C° 0.2 mm 7 m/S 741 mmHg 88%
    19:00 -8°C° 0.2 mm 7 m/S 741 mmHg 89%
    20:00 -8°C° 0 mm 6 m/S 741 mmHg 89%
    21:00 -6°C° 0 mm 6 m/S 741 mmHg 89%
    22:00 -6°C° 0 mm 6 m/S 741 mmHg 89%
    23:00 -6°C° 0 mm 5 m/S 741 mmHg 90%
    Mehr zeigen